TimeEST,TemperatureF,Dew PointF,Humidity,Sea Level PressureIn,VisibilityMPH,Wind Direction,Wind SpeedMPH,Gust SpeedMPH,PrecipitationIn,Events,Conditions,WindDirDegrees,DateUTC
12:52 AM,28.9,16.0,58,30.21,10.0,SW,4.6,-,N/A,,Clear,230,2013-11-14 05:52:00
1:52 AM,30.9,18.0,59,30.19,10.0,West,5.8,-,N/A,,Clear,260,2013-11-14 06:52:00
2:52 AM,33.1,19.9,59,30.17,10.0,WSW,5.8,-,N/A,,Clear,250,2013-11-14 07:52:00
3:52 AM,32.0,19.9,61,30.16,10.0,West,3.5,-,N/A,,Clear,270,2013-11-14 08:52:00
4:52 AM,30.9,21.0,67,30.15,10.0,West,3.5,-,N/A,,Clear,270,2013-11-14 09:52:00
5:52 AM,35.1,26.1,70,30.13,10.0,WSW,5.8,-,N/A,,Clear,250,2013-11-14 10:52:00
6:52 AM,36.0,28.9,76,30.14,10.0,West,4.6,-,N/A,,Partly Cloudy,270,2013-11-14 11:52:00
7:52 AM,41.0,30.9,67,30.14,10.0,WSW,8.1,-,N/A,,Clear,250,2013-11-14 12:52:00
8:52 AM,45.0,34.0,65,30.14,10.0,WSW,12.7,23.0,N/A,,Clear,250,2013-11-14 13:52:00
9:52 AM,46.9,28.0,48,30.14,10.0,WSW,10.4,23.0,N/A,,Clear,250,2013-11-14 14:52:00
10:52 AM,48.9,17.1,28,30.11,10.0,West,10.4,20.7,N/A,,Clear,260,2013-11-14 15:52:00
11:52 AM,48.9,21.0,33,30.09,10.0,SW,15.0,25.3,N/A,,Clear,230,2013-11-14 16:52:00
12:52 PM,50.0,27.0,41,30.07,10.0,WSW,10.4,21.9,N/A,,Clear,240,2013-11-14 17:52:00
1:52 PM,48.9,28.9,46,30.08,10.0,WSW,13.8,23.0,N/A,,Clear,240,2013-11-14 18:52:00
2:52 PM,46.9,30.0,52,30.09,10.0,WSW,10.4,24.2,N/A,,Clear,250,2013-11-14 19:52:00
3:52 PM,46.0,33.1,61,30.09,10.0,WSW,10.4,19.6,N/A,,Clear,240,2013-11-14 20:52:00
4:52 PM,45.0,30.9,58,30.12,10.0,WSW,5.8,-,N/A,,Clear,240,2013-11-14 21:52:00
5:52 PM,45.0,30.9,58,30.13,10.0,WSW,6.9,-,N/A,,Clear,250,2013-11-14 22:52:00
6:52 PM,44.1,30.0,58,30.15,10.0,WSW,5.8,-,N/A,,Clear,250,2013-11-14 23:52:00
7:52 PM,45.0,28.0,52,30.16,10.0,WSW,6.9,-,N/A,,Clear,250,2013-11-15 00:52:00
8:52 PM,46.0,32.0,58,30.17,10.0,WSW,8.1,-,N/A,,Clear,240,2013-11-15 01:52:00
9:52 PM,48.0,33.1,56,30.17,10.0,WSW,8.1,-,N/A,,Clear,250,2013-11-15 02:52:00
10:52 PM,48.0,30.9,52,30.17,10.0,WSW,6.9,-,N/A,,Clear,250,2013-11-15 03:52:00
11:52 PM,46.9,30.9,54,30.17,10.0,WSW,8.1,-,N/A,,Clear,250,2013-11-15 04:52:00